Location: Quesnel
(52.9830°N, 122.4830°W)
Time: 01:57:13
(UTC-07:00)

ISS - All Passes

Search period start: 22 April 2018 00:00
Search period end: 02 May 2018 00:00
Orbit: 403 x 406 km, 51.6° (Epoch: 22 April)

Date Brightness Start Highest point End Pass type
(mag) Time Alt. Az. Time Alt. Az. Time Alt. Az.
22 Apr - 10:14:05 10° SSW 10:16:47 24° SSE 10:19:30 10° E daylight
22 Apr - 11:49:39 10° WSW 11:52:55 61° SSE 11:56:09 10° E daylight
22 Apr - 13:26:01 10° W 13:29:16 64° S 13:32:32 10° ESE daylight
22 Apr - 15:02:36 10° W 15:05:26 27° SSW 15:08:16 10° SSE daylight
23 Apr - 09:22:35 10° S 09:24:44 17° SE 09:26:54 10° ESE daylight
23 Apr - 10:57:32 10° WSW 11:00:42 49° SSE 11:03:54 10° E daylight
23 Apr - 12:33:47 10° W 12:37:03 70° S 12:40:20 10° E daylight
23 Apr - 14:10:15 10° W 14:13:19 37° SSW 14:16:23 10° SE daylight
23 Apr - 15:48:21 10° SW 15:49:07 11° SW 15:49:52 10° SSW daylight
24 Apr - 08:31:54 10° SSE 08:32:44 11° SE 08:33:36 10° ESE daylight
24 Apr - 10:05:29 10° SW 10:08:32 37° SSE 10:11:37 10° E daylight
24 Apr - 11:41:32 10° W 11:44:49 70° S 11:48:05 10° E daylight
24 Apr - 13:17:57 10° W 13:21:09 49° SSW 13:24:20 10° ESE daylight
24 Apr - 14:54:58 10° WSW 14:57:07 16° SW 14:59:15 10° S daylight
25 Apr - 09:13:35 10° SSW 09:16:24 27° SSE 09:19:14 10° E daylight
25 Apr - 10:49:19 10° WSW 10:52:34 64° S 10:55:50 10° E daylight
25 Apr - 12:25:41 10° W 12:28:56 60° S 12:32:11 10° ESE daylight
25 Apr - 14:02:21 10° W 14:05:03 23° SSW 14:07:44 10° SSE daylight
26 Apr - 08:21:55 10° SSW 08:24:18 19° SE 08:26:42 10° E daylight
26 Apr - 09:57:07 10° WSW 10:00:19 53° SSE 10:03:32 10° E daylight
26 Apr - 11:33:24 10° W 11:36:41 68° S 11:39:57 10° ESE daylight
26 Apr - 13:09:55 10° W 13:12:55 33° SSW 13:15:54 10° SE daylight
27 Apr - 07:30:44 10° SSE 07:32:15 13° SE 07:33:46 10° ESE daylight
27 Apr - 09:05:00 10° SW 09:08:06 41° SSE 09:11:13 10° E daylight
27 Apr - 10:41:07 10° W 10:44:24 71° S 10:47:40 10° E daylight
27 Apr - 12:17:34 10° W 12:20:43 44° SSW 12:23:52 10° SE daylight
27 Apr - 13:54:48 10° WSW 13:56:37 14° SW 13:58:26 10° S daylight
28 Apr - 08:12:59 10° SW 08:15:54 30° SSE 08:18:50 10° E daylight
28 Apr - 09:48:51 10° WSW 09:52:06 67° S 09:55:22 10° E daylight
28 Apr - 11:25:14 10° W 11:28:28 56° SSW 11:31:42 10° ESE daylight
28 Apr - 13:01:59 10° W 13:04:32 21° SSW 13:07:04 10° SSE daylight
29 Apr - 07:21:11 10° SSW 07:23:45 21° SSE 07:26:20 10° E daylight
29 Apr - 08:56:36 10° WSW 08:59:49 57° SSE 09:03:04 10° E daylight
29 Apr - 10:32:56 10° W 10:36:11 66° S 10:39:27 10° ESE daylight
29 Apr - 12:09:28 10° W 12:12:23 29° SSW 12:15:17 10° SE daylight
30 Apr - 06:29:44 10° S 06:31:38 15° SE 06:33:33 10° ESE daylight
30 Apr - 08:04:24 10° SW 08:07:33 45° SSE 08:10:43 10° E daylight
30 Apr - 09:40:36 10° W 09:43:52 71° S 09:47:09 10° E daylight
30 Apr - 11:17:03 10° W 11:20:09 40° SSW 11:23:16 10° SE daylight
30 Apr - 12:54:36 10° WSW 12:55:59 12° SW 12:57:22 10° SSW daylight
01 May - 07:12:18 10° SW 07:15:18 34° SSE 07:18:19 10° E daylight
01 May - 08:48:16 10° WSW 08:51:32 69° S 08:54:49 10° E daylight
01 May - 10:24:40 10° W 10:27:53 52° SSW 10:31:06 10° ESE daylight
01 May - 12:01:33 10° W 12:03:53 18° SW 12:06:14 10° SSE daylight
